Weather History for Maryland Science Center, MD

Change the Weather History Date:

Monday, May 6, 2013

  Actual Average Record
Temperature  
Mean Temperature 60 °F 63 °F  
Max Temperature 67 °F 72 °F 91 °F (2000)
Min Temperature 52 °F 54 °F 50 °F (2003)
Degree Days  
Heating Degree Days 5 4  
Month to date heating degree days 22 26  
Since 1 July heating degree days 3355 3971  
Cooling Degree Days 0 2  
Month to date cooling degree days 0 11  
Year to date cooling degree days 51 36  
Growing Degree Days 9 (Base 50)    
Moisture  
Dew Point 50 °F    
Average Humidity 70    
Maximum Humidity 78    
Minimum Humidity 61    
Precipitation  
Precipitation 0.00 in 0.10 in 0.05 in (1998)
Month to date precipitation 0.00 0.62  
Year to date precipitation 10.33 13.22  
Sea Level Pressure  
Sea Level Pressure 30.15 in    
Wind  
Wind Speed - (North)    
Max Wind Speed -    
Max Gust Speed -    
T = Trace of Precipitation, MM = Missing Value Source: NWS Daily Summary

Daily Weather History Graph

Daily Weather History Graph

Search for Another Location

Airport:

Trip Planner

Search our weather history database for the weather conditions in past years. The results will help you decide how hot, cold, wet, or windy it might be!

Date:

Astronomy

May. 06, 2013 Rise Set
Actual Time 6:01 AM EDT 8:04 PM EDT
Civil Twilight 5:32 AM EDT 8:34 PM EDT
Nautical Twilight 4:56 AM EDT 9:10 PM EDT
Astronomical Twilight 4:17 AM EDT 9:49 PM EDT
Moon 4:01 AM EDT (5/6) 5:03 PM EDT (5/6)
Length of Visible Light 15h 01m
Length of Day
14h 03m
Waning Crescent, 11% of the Moon is Illuminated
May 6
Waning Crescent
May 9
New
May 18
First Quarter
May 25
Full
May 31
Last Quarter

Hourly Weather History & Observations

Time (EDT) Temp. Dew Point Humidity Pressure Visibility Wind Dir Wind Speed Gust Speed Precip Events Conditions
12:54 AM 55.0 °F 43.0 °F 64% 30.19 in - North - - N/A   Unknown
1:54 AM 54.0 °F 43.0 °F 66% 30.19 in - North - - N/A   Unknown
2:54 AM 54.0 °F 43.0 °F 66% 30.18 in - North - - N/A   Unknown
3:54 AM 53.1 °F 42.1 °F 66% 30.17 in - North - - N/A   Unknown
4:54 AM 52.0 °F 42.1 °F 69% 30.19 in - North - - N/A   Unknown
5:54 AM 52.0 °F 43.0 °F 71% 30.18 in - North - - N/A   Unknown
6:54 AM 52.0 °F 44.1 °F 74% 30.19 in - North - - N/A   Unknown
7:54 AM 53.1 °F 45.0 °F 74% 30.20 in - North - - N/A   Unknown
8:54 AM 53.1 °F 46.9 °F 80% 30.19 in - North - - N/A   Unknown
9:54 AM 55.0 °F 48.0 °F 77% 30.19 in - North - - N/A   Unknown
10:54 AM 57.9 °F 50.0 °F 75% 30.19 in - North - - N/A   Unknown
11:54 AM 60.1 °F 51.1 °F 72% 30.18 in - North - - N/A   Unknown
12:54 PM 62.1 °F 53.1 °F 72% 30.17 in - North - - N/A   Unknown
1:54 PM 64.0 °F 53.1 °F 67% 30.14 in - North - - N/A   Unknown
2:54 PM 64.9 °F 55.0 °F 70% 30.13 in - North - - N/A   Unknown
3:54 PM 66.0 °F 55.0 °F 68% 30.11 in - North - - N/A   Unknown
4:54 PM 66.0 °F 55.0 °F 68% 30.10 in - North - - N/A   Unknown
5:54 PM 66.9 °F 55.9 °F 68% 30.09 in - North - - N/A   Unknown
6:54 PM 66.0 °F 57.0 °F 73% 30.09 in - North - - N/A   Unknown
7:54 PM 64.9 °F 55.9 °F 73% 30.10 in - North - - N/A   Unknown
8:54 PM 64.0 °F 57.0 °F 78% 30.12 in - North - - N/A   Unknown
9:54 PM 64.0 °F 57.0 °F 78% 30.12 in - North - - N/A   Unknown
10:54 PM 63.0 °F 55.9 °F 78% 30.11 in - North - - N/A   Unknown
11:54 PM 63.0 °F 55.9 °F 78% 30.11 in - North - - N/A   Unknown